San Jose, CA

9:53 PM PDT on August 22, 2017 (GMT -0700)
San Jose International

Weather History for KSJC - February, 2014

Change the Weather History Date:

Monday, February 10, 2014

  Actual Average Record
Temperature  
Mean Temperature 57 °F 53 °F  
Max Temperature 62 °F 61 °F 75 °F (1988)
Min Temperature 51 °F 44 °F 25 °F (1904)
Degree Days  
Heating Degree Days 8 12  
Month to date heating degree days 137 129  
Since 1 July heating degree days 1384 1466  
Cooling Degree Days 0 0  
Month to date cooling degree days 0 0  
Year to date cooling degree days 0 0  
Growing Degree Days 6 (Base 50)    
Moisture  
Dew Point 52 °F    
Average Humidity 86    
Maximum Humidity 100    
Minimum Humidity 72    
Precipitation  
Precipitation 0.01 in 0.11 in 1.50 in (1992)
Month to date precipitation 0.92 1.12  
Year to date precipitation 1.04 4.19  
Since 1 July precipitation 2.60  
Sea Level Pressure  
Sea Level Pressure 30.22 in    
Wind  
Wind Speed 5 mph (NW)    
Max Wind Speed 14 mph    
Max Gust Speed 16 mph    
Visibility 9 miles    
Events      
T = Trace of Precipitation, MM = Missing Value Source: NWS Daily Summary

Daily Weather History Graph

Daily Weather History Graph

Search for Another Location

Airport or City:

Trip Planner

Search our weather history database for the weather conditions in past years. The results will help you decide how hot, cold, wet, or windy it might be!

Date:

Astronomy

Feb. 10, 2014 Rise Set
Actual Time 7:02 AM PST 5:42 PM PST
Civil Twilight 6:35 AM PST 6:09 PM PST
Nautical Twilight 6:04 AM PST 6:39 PM PST
Astronomical Twilight 5:34 AM PST 7:10 PM PST
Moon 2:17 PM PST (2/10) 3:57 AM PST (2/10)
Length of Visible Light 11h 33m
Length of Day
10h 39m
Waxing Gibbous, 85% of the Moon is Illuminated
Feb 10
Waxing Gibbous
Feb 14
Full
Feb 22
Last Quarter
Mar 1
New
Mar 8
First Quarter

Hourly Weather History & Observations

Time (PST) Temp. Dew Point Humidity Pressure Visibility Wind Dir Wind Speed Gust Speed Precip Events Conditions
12:05 AM 59.0 °F 53.6 °F 82% 30.13 in 10.0 mi ESE 3.5 mph - N/A   Overcast
12:48 AM 57.2 °F 53.6 °F 88% 30.12 in 10.0 mi SE 5.8 mph - N/A   Scattered Clouds
12:53 AM 57.9 °F 53.1 °F 84% 30.12 in 10.0 mi SE 4.6 mph - N/A   Scattered Clouds
1:53 AM 55.9 °F 53.1 °F 90% 30.14 in 10.0 mi Calm Calm - N/A   Mostly Cloudy
2:34 AM 55.4 °F 53.6 °F 94% 30.15 in 10.0 mi WNW 5.8 mph - N/A   Mostly Cloudy
2:53 AM 55.9 °F 51.1 °F 84% 30.16 in 10.0 mi WNW 8.1 mph - N/A   Overcast
3:29 AM 55.4 °F 51.8 °F 88% 30.16 in 10.0 mi NNW 5.8 mph - N/A   Overcast
3:38 AM 55.4 °F 51.8 °F 88% 30.16 in 10.0 mi North 6.9 mph - N/A   Overcast
3:53 AM 55.9 °F 51.1 °F 84% 30.17 in 10.0 mi NW 8.1 mph - N/A   Overcast
4:33 AM 55.4 °F 51.8 °F 88% 30.17 in 10.0 mi NNW 5.8 mph - N/A   Overcast
4:53 AM 55.0 °F 52.0 °F 89% 30.18 in 10.0 mi NW 4.6 mph - N/A   Overcast
5:38 AM 55.4 °F 51.8 °F 88% 30.18 in 10.0 mi North 6.9 mph - N/A   Mostly Cloudy
5:53 AM 55.0 °F 52.0 °F 89% 30.19 in 10.0 mi NNW 4.6 mph - N/A   Mostly Cloudy
6:53 AM 54.0 °F 53.1 °F 97% 30.21 in 6.0 mi Calm Calm - 0.00 in   Overcast
7:24 AM 53.6 °F 53.6 °F 100% 30.22 in 6.0 mi Calm Calm - N/A   Overcast
7:47 AM 53.6 °F 53.6 °F 100% 30.23 in 2.5 mi Calm Calm - 0.01 in   Overcast
7:53 AM 54.0 °F 53.1 °F 97% 30.24 in 2.5 mi Calm Calm - 0.01 in   Overcast
8:21 AM 55.4 °F 53.6 °F 94% 30.25 in 7.0 mi Calm Calm - N/A   Overcast
8:53 AM 55.9 °F 53.1 °F 90% 30.25 in 7.0 mi Calm Calm - N/A   Overcast
9:53 AM 55.9 °F 54.0 °F 93% 30.27 in 10.0 mi Calm Calm - N/A   Overcast
10:53 AM 57.9 °F 54.0 °F 87% 30.28 in 10.0 mi North 8.1 mph - N/A   Overcast
11:24 AM 57.2 °F 53.6 °F 88% 30.28 in 10.0 mi NW 10.4 mph - N/A   Mostly Cloudy
11:53 AM 57.0 °F 53.1 °F 87% 30.28 in 10.0 mi WNW 9.2 mph - N/A   Mostly Cloudy
12:04 PM 57.2 °F 53.6 °F 88% 30.28 in 10.0 mi WNW 11.5 mph - N/A   Mostly Cloudy
12:53 PM 59.0 °F 52.0 °F 78% 30.26 in 10.0 mi NW 9.2 mph - N/A   Mostly Cloudy
1:53 PM 60.1 °F 52.0 °F 75% 30.25 in 10.0 mi WNW 8.1 mph - N/A   Mostly Cloudy
2:53 PM 60.1 °F 51.1 °F 72% 30.24 in 10.0 mi WNW 11.5 mph - N/A   Mostly Cloudy
3:53 PM 60.1 °F 51.1 °F 72% 30.23 in 10.0 mi WNW 11.5 mph - N/A   Mostly Cloudy
4:07 PM 59.0 °F 51.8 °F 77% 30.23 in 10.0 mi WNW 11.5 mph - N/A   Mostly Cloudy
4:53 PM 59.0 °F 51.1 °F 75% 30.23 in 10.0 mi NW 8.1 mph - N/A   Mostly Cloudy
5:53 PM 57.0 °F 50.0 °F 77% 30.23 in 10.0 mi NNW 5.8 mph - N/A   Scattered Clouds
6:53 PM 57.0 °F 51.1 °F 81% 30.24 in 10.0 mi NNW 4.6 mph - N/A   Scattered Clouds
7:53 PM 55.9 °F 51.1 °F 84% 30.24 in 10.0 mi NW 4.6 mph - N/A   Scattered Clouds
8:53 PM 55.0 °F 51.1 °F 86% 30.25 in 10.0 mi NW 4.6 mph - N/A   Mostly Cloudy
9:48 PM 51.8 °F 50.0 °F 94% 30.25 in 9.0 mi West 5.8 mph - N/A   Overcast
9:53 PM 52.0 °F 51.1 °F 97% 30.25 in 8.0 mi West 5.8 mph - N/A   Overcast
10:08 PM 51.8 °F 51.8 °F 100% 30.24 in 7.0 mi WNW 3.5 mph - N/A   Overcast
10:53 PM 52.0 °F 51.1 °F 97% 30.23 in 7.0 mi West 3.5 mph - N/A   Mostly Cloudy
11:53 PM 52.0 °F 51.1 °F 97% 30.25 in 5.0 mi Calm Calm - N/A   Overcast